{"data":{"norad_id":53676,"epoch":"2026-05-25T02:52:58.984032Z","epoch_age_seconds":64373,"freshness":"FRESH","line1":"1 53676U 22105AE  26145.12012713 -.00000948  00000+0 -61607-4 0  9998","line2":"2 53676  97.4505  25.1043 0002433  71.6262 288.5230 15.05657658204732","mean_motion":15.05657658,"eccentricity":0.0002433,"inclination_deg":97.4505,"raan_deg":25.1043,"arg_perigee_deg":71.6262,"mean_anomaly_deg":288.523,"bstar":-6.1607e-5,"rev_number":20473,"period_min":95.639270477512,"perigee_km":547.80217290215,"apogee_km":551.17315506365,"semimajor_km":6927.6246639829,"source":"CELESTRAK","updated_at":"2026-05-25T13:38:17.490369Z"}}